Weather History for Grand Marais Airport, MN

Change the Weather History Date:

Monday, October 1, 2012

  Actual Average Record
Temperature  
Mean Temperature 46 °F -  
Max Temperature 60 °F 52 °F 71 °F (2000)
Min Temperature 33 °F 35 °F 19 °F (1997)
Degree Days  
Heating Degree Days 18    
Moisture  
Dew Point 38 °F    
Average Humidity 72    
Maximum Humidity 93    
Minimum Humidity 48    
Precipitation  
Precipitation 0.00 in - - ()
Sea Level Pressure  
Sea Level Pressure 29.86 in    
Wind  
Wind Speed 4 mph (NW)    
Max Wind Speed 18 mph    
Max Gust Speed 29 mph    
Visibility 9 miles    
Events Fog    
Averages and records for this station are not official NWS values.
T = Trace of Precipitation, MM = Missing Value Source: NWS Daily Summary

Daily Weather History Graph

Daily Weather History Graph

Search for Another Location

Airport:

Trip Planner

Search our weather history database for the weather conditions in past years. The results will help you decide how hot, cold, wet, or windy it might be!

Date:

Astronomy

Oct. 01, 2012 Rise Set
Actual Time 7:01 AM CDT 6:39 PM CDT
Civil Twilight 6:30 AM CDT 7:10 PM CDT
Nautical Twilight 5:54 AM CDT 7:46 PM CDT
Astronomical Twilight 5:18 AM CDT 8:22 PM CDT
Moon 7:04 PM CDT (10/1) 8:41 AM CDT (10/1)
Length of Visible Light 12h 40m
Length of Day
11h 38m
Full, 98% of the Moon is Illuminated
Oct 1
Full
Oct 8
Last Quarter
Oct 15
New
Oct 21
First Quarter
Oct 29
Full

Hourly Weather History & Observations

Time (CDT) Temp. Windchill Dew Point Humidity Pressure Visibility Wind Dir Wind Speed Gust Speed Precip Events Conditions
12:13 AM 35.6 °F - 32.0 °F 87% 29.89 in 0.5 mi Calm Calm - N/A Fog Fog
12:34 AM 35.6 °F - 32.0 °F 87% 29.88 in 1.2 mi Calm Calm - N/A   Mostly Cloudy
12:53 AM 35.6 °F - 32.0 °F 87% 29.88 in 1.8 mi Calm Calm - N/A   Mostly Cloudy
1:14 AM 35.6 °F - 32.0 °F 87% 29.87 in 10.0 mi Calm Calm - N/A   Scattered Clouds
1:33 AM 35.6 °F - 33.8 °F 93% 29.87 in 10.0 mi Calm Calm - N/A   Clear
1:54 AM 35.6 °F - 33.8 °F 93% 29.86 in 10.0 mi Calm Calm - N/A   Clear
2:33 AM 35.6 °F - 33.8 °F 93% 29.84 in 3.0 mi Calm Calm - N/A   Clear
2:54 AM 35.6 °F - 32.0 °F 87% 29.84 in 2.0 mi Calm Calm - N/A   Clear
3:14 AM 35.6 °F - 33.8 °F 93% 29.84 in 1.0 mi Calm Calm - N/A   Mist
3:33 AM 35.6 °F - 33.8 °F 93% 29.83 in 0.8 mi Calm Calm - N/A   Mist
3:54 AM 33.8 °F - 30.2 °F 87% 29.82 in 3.0 mi Calm Calm - N/A   Clear
4:14 AM 35.6 °F - 33.8 °F 93% 29.82 in 7.0 mi Calm Calm - N/A   Clear
4:33 AM 35.6 °F - 32.0 °F 87% 29.82 in 7.0 mi Calm Calm - N/A   Clear
4:54 AM 37.4 °F - 35.6 °F 93% 29.81 in 10.0 mi Calm Calm - N/A   Clear
5:14 AM 33.8 °F - 30.2 °F 87% 29.82 in 10.0 mi Calm Calm - N/A   Clear
5:34 AM 33.8 °F - 30.2 °F 87% 29.82 in 10.0 mi Calm Calm - N/A   Clear
5:53 AM 33.8 °F - 30.2 °F 87% 29.81 in 10.0 mi Calm Calm - N/A   Clear
6:14 AM 35.6 °F 32.8 °F 33.8 °F 93% 29.81 in 10.0 mi West 3.5 mph - N/A   Clear
6:33 AM 37.4 °F - 35.6 °F 93% 29.80 in 10.0 mi Calm Calm - N/A   Clear
6:54 AM 39.2 °F - 35.6 °F 87% 29.80 in 10.0 mi Calm Calm - N/A   Clear
7:13 AM 42.8 °F 41.1 °F 39.2 °F 87% 29.80 in 10.0 mi West 3.5 mph - N/A   Clear
7:34 AM 39.2 °F - 35.6 °F 87% 29.80 in 10.0 mi Calm Calm - N/A   Clear
7:54 AM 39.2 °F - 35.6 °F 87% 29.80 in 10.0 mi Calm Calm - N/A   Clear
8:13 AM 44.6 °F 41.4 °F 39.2 °F 81% 29.80 in 10.0 mi WNW 5.8 mph - N/A   Clear
8:34 AM 48.2 °F - 42.8 °F 82% 29.80 in 10.0 mi WNW 8.1 mph - N/A   Clear
8:54 AM 51.8 °F - 42.8 °F 71% 29.79 in 10.0 mi NW 8.1 mph - N/A   Clear
9:13 AM 53.6 °F - 44.6 °F 72% 29.80 in 10.0 mi NW 12.7 mph 20.7 mph N/A   Clear
9:33 AM 55.4 °F - 44.6 °F 67% 29.80 in 10.0 mi NW 12.7 mph 20.7 mph N/A   Clear
9:54 AM 55.4 °F - 44.6 °F 67% 29.81 in 10.0 mi WNW 10.4 mph 20.7 mph N/A   Clear
10:14 AM 57.2 °F - 44.6 °F 63% 29.81 in 10.0 mi NW 13.8 mph 20.7 mph N/A   Clear
10:34 AM 57.2 °F - 44.6 °F 63% 29.82 in 10.0 mi NNW 13.8 mph 19.6 mph N/A   Clear
10:54 AM 57.2 °F - 44.6 °F 63% 29.82 in 10.0 mi NNW 15.0 mph 23.0 mph N/A   Clear
11:13 AM 57.2 °F - 44.6 °F 63% 29.82 in 10.0 mi NNW 12.7 mph 19.6 mph N/A   Clear
11:34 AM 57.2 °F - 44.6 °F 63% 29.83 in 10.0 mi NW 10.4 mph 20.7 mph N/A   Clear
12:13 PM 60.8 °F - 46.4 °F 59% 29.84 in 10.0 mi NW 15.0 mph 24.2 mph N/A   Scattered Clouds
12:34 PM 57.2 °F - 46.4 °F 67% 29.83 in 10.0 mi NW 16.1 mph 26.5 mph N/A   Mostly Cloudy
12:54 PM 59.0 °F - 46.4 °F 63% 29.83 in 10.0 mi NW 16.1 mph 28.8 mph N/A   Mostly Cloudy
1:14 PM 57.2 °F - 46.4 °F 67% 29.83 in 10.0 mi NNW 15.0 mph 24.2 mph N/A   Mostly Cloudy
1:33 PM 57.2 °F - 46.4 °F 67% 29.84 in 10.0 mi NW 10.4 mph 21.9 mph N/A   Overcast
1:54 PM 57.2 °F - 46.4 °F 67% 29.84 in 10.0 mi NW 12.7 mph 23.0 mph N/A   Mostly Cloudy
2:14 PM 57.2 °F - 46.4 °F 67% 29.84 in 10.0 mi NW 18.4 mph 25.3 mph N/A   Scattered Clouds
3:14 PM 57.2 °F - 46.4 °F 67% 29.86 in 10.0 mi NNW 15.0 mph 23.0 mph N/A   Mostly Cloudy
3:33 PM 57.2 °F - 46.4 °F 67% 29.86 in 10.0 mi NW 12.7 mph 18.4 mph N/A   Mostly Cloudy
3:54 PM 57.2 °F - 44.6 °F 63% 29.86 in 10.0 mi NNW 9.2 mph 17.3 mph N/A   Scattered Clouds
4:14 PM 57.2 °F - 44.6 °F 63% 29.87 in 10.0 mi NNW 10.4 mph - N/A   Scattered Clouds
4:33 PM 57.2 °F - 42.8 °F 59% 29.87 in 10.0 mi NW 9.2 mph - N/A   Scattered Clouds
4:54 PM 57.2 °F - 42.8 °F 59% 29.88 in 10.0 mi NW 5.8 mph - N/A   Clear
5:14 PM 59.0 °F - 42.8 °F 55% 29.88 in 10.0 mi NW 3.5 mph - N/A   Clear
5:33 PM 60.8 °F - 41.0 °F 48% 29.88 in 10.0 mi WNW 5.8 mph - N/A   Clear
5:54 PM 59.0 °F - 39.2 °F 48% 29.89 in 10.0 mi WNW 6.9 mph - N/A   Scattered Clouds
6:14 PM 57.2 °F - 37.4 °F 48% 29.90 in 10.0 mi NNW 6.9 mph - N/A   Scattered Clouds
6:33 PM 55.4 °F - 37.4 °F 51% 29.91 in 10.0 mi NW 4.6 mph - N/A   Clear
6:54 PM 53.6 °F - 37.4 °F 54% 29.92 in 10.0 mi NW 4.6 mph - N/A   Clear
7:14 PM 53.6 °F - 37.4 °F 54% 29.92 in 10.0 mi NW 3.5 mph - N/A   Clear
7:33 PM 51.8 °F - 37.4 °F 58% 29.93 in 10.0 mi NW 5.8 mph - N/A   Clear
7:54 PM 51.8 °F - 37.4 °F 58% 29.93 in 10.0 mi NW 4.6 mph - N/A   Clear
8:14 PM 51.8 °F - 35.6 °F 54% 29.93 in 10.0 mi NW 4.6 mph - N/A   Clear
8:34 PM 50.0 °F - 35.6 °F 58% 29.94 in 10.0 mi NW 4.6 mph - N/A   Clear
8:53 PM 48.2 °F - 35.6 °F 62% 29.94 in 10.0 mi NW 4.6 mph - N/A   Clear
9:13 PM 46.4 °F 44.3 °F 35.6 °F 66% 29.94 in 10.0 mi WNW 4.6 mph - N/A   Clear
9:34 PM 46.4 °F 44.3 °F 35.6 °F 66% 29.94 in 10.0 mi NW 4.6 mph - N/A   Clear
9:54 PM 46.4 °F 44.3 °F 35.6 °F 66% 29.94 in 10.0 mi NW 4.6 mph - N/A   Clear
10:14 PM 46.4 °F 44.3 °F 33.8 °F 62% 29.95 in 10.0 mi NW 4.6 mph - N/A   Clear
10:33 PM 46.4 °F 43.5 °F 33.8 °F 62% 29.95 in 10.0 mi NW 5.8 mph - N/A   Clear
10:54 PM 44.6 °F 41.4 °F 33.8 °F 66% 29.95 in 10.0 mi NNW 5.8 mph - N/A   Clear
11:14 PM 42.8 °F 39.3 °F 32.0 °F 66% 29.95 in 10.0 mi NNW 5.8 mph - N/A   Clear
11:34 PM 41.0 °F 37.1 °F 32.0 °F 70% 29.95 in 10.0 mi NNW 5.8 mph - N/A   Clear
11:53 PM 39.2 °F 35.0 °F 30.2 °F 70% 29.95 in 10.0 mi NNW 5.8 mph - N/A   Clear